AAL110 MPTO-MROC

Flight info

Callsign AAL110
Flight time N/A
Altitude 30000
Route PUDOS DCT ISEBA CUARE3I
Aircraft B738/M-SDE2E3FGHIRWXY/LB1

Departure

Time 2026-04-27 22:38
Airport Tocumen International Airport (MPTO)

Arrival

Time N/A
Airport Juan Santamaría International Airport (MROC)
Time Latitude Longitude Altitude Speed Heading
2026-04-27 21:56 9.06795 -79.38472 62 ft 0 kts 279°
2026-04-27 22:26 9.06794 -79.38472 63 ft 0 kts 279°
2026-04-27 22:27 9.06793 -79.38460 63 ft 2 kts 280°
2026-04-27 22:27 9.06790 -79.38445 62 ft 2 kts 279°
2026-04-27 22:27 9.06788 -79.38430 61 ft 2 kts 266°
2026-04-27 22:27 9.06791 -79.38416 60 ft 2 kts 250°
2026-04-27 22:28 9.06798 -79.38402 59 ft 2 kts 232°
2026-04-27 22:28 9.06808 -79.38391 59 ft 2 kts 216°
2026-04-27 22:28 9.06821 -79.38384 59 ft 2 kts 206°
2026-04-27 22:28 9.06832 -79.38375 58 ft 2 kts 224°
2026-04-27 22:29 9.06838 -79.38370 58 ft 0 kts 229°
2026-04-27 22:31 9.06837 -79.38370 58 ft 0 kts 229°
2026-04-27 22:31 9.06838 -79.38383 59 ft 3 kts 308°
2026-04-27 22:32 9.06851 -79.38398 59 ft 5 kts 311°
2026-04-27 22:32 9.06889 -79.38444 61 ft 8 kts 308°
2026-04-27 22:32 9.06921 -79.38474 62 ft 4 kts 340°
2026-04-27 22:32 9.06959 -79.38470 62 ft 7 kts 19°
2026-04-27 22:33 9.07018 -79.38439 62 ft 9 kts 29°
2026-04-27 22:33 9.07074 -79.38407 61 ft 9 kts 29°
2026-04-27 22:33 9.07123 -79.38388 62 ft 7 kts
2026-04-27 22:33 9.07160 -79.38411 63 ft 5 kts 298°
2026-04-27 22:34 9.07180 -79.38445 63 ft 6 kts 301°
2026-04-27 22:34 9.07208 -79.38494 64 ft 9 kts 297°
2026-04-27 22:34 9.07237 -79.38557 63 ft 9 kts 294°
2026-04-27 22:34 9.07256 -79.38618 63 ft 8 kts 280°
2026-04-27 22:35 9.07258 -79.38626 63 ft 0 kts 280°
2026-04-27 22:35 9.07259 -79.38631 63 ft 0 kts 280°
2026-04-27 22:35 9.07260 -79.38638 63 ft 1 kts 280°
2026-04-27 22:36 9.07262 -79.38650 63 ft 2 kts 280°
2026-04-27 22:36 9.07271 -79.38683 63 ft 6 kts 293°
2026-04-27 22:36 9.07312 -79.38705 62 ft 8 kts
2026-04-27 22:36 9.07363 -79.38683 63 ft 7 kts 32°
2026-04-27 22:37 9.07401 -79.38660 63 ft 5 kts 31°
2026-04-27 22:37 9.07438 -79.38638 64 ft 14 kts 31°
2026-04-27 22:37 9.07627 -79.38524 69 ft 48 kts 31°
2026-04-27 22:37 9.08052 -79.38268 78 ft 95 kts 31°
2026-04-27 22:38 9.08747 -79.37853 117 ft 142 kts 31°
2026-04-27 22:38 9.09758 -79.37256 291 ft 181 kts 31°
2026-04-27 22:38 9.10908 -79.36549 773 ft 202 kts 31°
2026-04-27 22:38 9.12034 -79.35818 1898 ft 188 kts 33°
2026-04-27 22:39 9.12969 -79.35081 3098 ft 167 kts 39°
2026-04-27 22:39 9.13940 -79.34308 3263 ft 205 kts 33°
2026-04-27 22:39 9.15335 -79.33463 2914 ft 263 kts 30°
2026-04-27 22:39 9.16999 -79.32461 2966 ft 295 kts 31°
2026-04-27 22:40 9.18806 -79.31340 3568 ft 297 kts 30°
2026-04-27 22:40 9.20484 -79.30352 4584 ft 283 kts 30°